Weather History for Jacksonville, IL

Change the Weather History Date:

Saturday, June 7, 2014

  Actual Average (KSPI) Record (KSPI)
Temperature  
Mean Temperature 70 °F 70 °F  
Max Temperature 78 °F 81 °F 99 °F (1933)
Min Temperature 63 °F 60 °F 46 °F (1998)
Degree Days  
Heating Degree Days 0 1  
Month to date heating degree days 7  
Since 1 June heating degree days 7  
Since 1 July heating degree days 5477  
Cooling Degree Days 6 6  
Month to date cooling degree days 39  
Year to date cooling degree days 143  
Since 1 June cooling degree days 39  
Growing Degree Days 20 (Base 50)    
Moisture  
Dew Point 65 °F    
Average Humidity 86    
Maximum Humidity 96    
Minimum Humidity 57    
Precipitation  
Precipitation 1.20 in 0.16 in 1.89 in (1918)
Month to date precipitation 1.09  
Year to date precipitation 15.10  
Snow  
Snow 0.00 in 0.00 in 0.00 in ()
Month to date snowfall 0.0  
Since 1 June snowfall 0.0  
Since 1 July snowfall 20.9  
Snow Depth -    
Sea Level Pressure  
Sea Level Pressure 29.86 in    
Wind  
Wind Speed 7 mph (ESE)    
Max Wind Speed 23 mph    
Max Gust Speed 32 mph    
Visibility 7 miles    
Events Rain , Thunderstorm    
T = Trace of Precipitation, MM = Missing Value Source: NWS Daily Summary

Daily Weather History Graph

Daily Weather History Graph

Search for Another Location

Airport:

Trip Planner

Search our weather history database for the weather conditions in past years. The results will help you decide how hot, cold, wet, or windy it might be!

Date:

Astronomy

Jun. 07, 2014 Rise Set
Actual Time 5:33 AM CDT 8:26 PM CDT
Civil Twilight 5:00 AM CDT 8:59 PM CDT
Nautical Twilight 4:19 AM CDT 9:40 PM CDT
Astronomical Twilight 3:32 AM CDT 10:27 PM CDT
Moon 2:45 PM CDT (6/7) 1:53 AM CDT (6/7)
Length of Visible Light 15h 58m
Length of Day
14h 53m
Waxing Gibbous, 68% of the Moon is Illuminated
Jun 7
Waxing Gibbous
Jun 12
Full
Jun 19
Last Quarter
Jun 27
New
Jul 5
First Quarter

Hourly Weather History & Observations

Time (CDT) Temp. Dew Point Humidity Pressure Visibility Wind Dir Wind Speed Gust Speed Precip Events Conditions
12:15 AM 67.1 °F 63.7 °F 89% 29.94 in 7.0 mi East 5.8 mph - N/A   Clear
12:35 AM 67.1 °F 63.9 °F 89% 29.94 in 7.0 mi ESE 4.6 mph - N/A   Clear
12:55 AM 66.2 °F 63.5 °F 91% 29.95 in 7.0 mi Calm Calm - N/A   Clear
1:15 AM 66.7 °F 63.7 °F 90% 29.95 in 7.0 mi SE 3.5 mph - N/A   Clear
1:35 AM 68.4 °F 63.7 °F 85% 29.97 in 7.0 mi Calm Calm - N/A   Clear
1:55 AM 65.7 °F 62.4 °F 89% 29.97 in 5.0 mi Calm Calm - N/A   Clear
2:15 AM 66.6 °F 62.8 °F 88% 29.98 in 7.0 mi Calm Calm - N/A   Clear
2:35 AM 65.5 °F 62.6 °F 90% 29.97 in 5.0 mi East 3.5 mph - N/A   Clear
2:55 AM 65.3 °F 62.6 °F 91% 29.98 in 5.0 mi East 4.6 mph - N/A   Clear
3:15 AM 64.6 °F 62.6 °F 93% 29.98 in 4.0 mi East 4.6 mph - N/A   Clear
3:35 AM 64.4 °F 62.6 °F 94% 29.98 in 4.0 mi ESE 3.5 mph - N/A   Clear
3:55 AM 64.0 °F 62.1 °F 93% 29.98 in 4.0 mi SE 3.5 mph - N/A   Clear
4:15 AM 63.7 °F 61.2 °F 91% 29.98 in 4.0 mi ESE 4.6 mph - N/A   Clear
4:35 AM 63.5 °F 61.5 °F 93% 29.98 in 4.0 mi SE 3.5 mph - N/A   Clear
4:55 AM 63.0 °F 61.0 °F 93% 29.97 in 4.0 mi ESE 4.6 mph - N/A   Clear
5:15 AM 63.0 °F 61.0 °F 93% 29.98 in 3.0 mi ESE 3.5 mph - N/A   Clear
5:35 AM 63.9 °F 61.9 °F 93% 29.98 in 3.0 mi SE 3.5 mph - N/A   Clear
5:55 AM 64.4 °F 61.7 °F 91% 29.98 in 4.0 mi ESE 4.6 mph - N/A   Clear
6:15 AM 63.5 °F 61.3 °F 93% 29.97 in 3.0 mi East 5.8 mph - N/A   Clear
6:35 AM 65.1 °F 62.6 °F 92% 29.98 in 4.0 mi East 3.5 mph - N/A   Clear
6:55 AM 67.1 °F 63.5 °F 88% 29.97 in 5.0 mi East 5.8 mph - N/A   Clear
7:15 AM 69.3 °F 63.0 °F 80% 29.96 in 10.0 mi SE 6.9 mph - N/A   Clear
7:55 AM 70.9 °F 63.7 °F 78% 29.96 in 10.0 mi SE 5.8 mph - N/A   Clear
8:15 AM 72.5 °F 63.5 °F 73% 29.96 in 10.0 mi SE 9.2 mph - N/A   Clear
8:35 AM 72.9 °F 63.9 °F 73% 29.96 in 10.0 mi SE 8.1 mph - N/A   Clear
8:55 AM 74.8 °F 64.4 °F 70% 29.95 in 10.0 mi SE 10.4 mph - N/A   Clear
9:15 AM 76.3 °F 63.9 °F 65% 29.93 in 10.0 mi SE 12.7 mph - N/A   Clear
9:35 AM 76.3 °F 63.5 °F 64% 29.92 in 10.0 mi SE 9.2 mph - N/A   Clear
9:55 AM 78.3 °F 64.0 °F 61% 29.91 in 10.0 mi SE 12.7 mph 17.3 mph N/A   Clear
10:15 AM 78.3 °F 62.8 °F 59% 29.90 in 10.0 mi ESE 10.4 mph - N/A   Clear
10:35 AM 78.8 °F 62.6 °F 57% 29.91 in 10.0 mi SE 9.2 mph - N/A   Clear
10:55 AM 77.5 °F 63.5 °F 62% 29.90 in 10.0 mi ESE 10.4 mph - N/A   Clear
11:15 AM 77.9 °F 63.9 °F 62% 29.91 in 10.0 mi SE 11.5 mph 16.1 mph N/A   Clear
11:35 AM 77.9 °F 63.9 °F 62% 29.89 in 10.0 mi SE 13.8 mph - N/A   Scattered Clouds
12:15 PM 77.5 °F 64.9 °F 65% 29.86 in 10.0 mi ESE 13.8 mph 17.3 mph N/A   Clear
12:35 PM 74.8 °F 65.3 °F 72% 29.87 in 5.0 mi SSE 10.4 mph - 0.04 in Rain , Thunderstorm Heavy Thunderstorms and Rain
12:55 PM 73.4 °F 66.4 °F 79% 29.87 in 10.0 mi SE 10.4 mph - 0.06 in Rain Light Rain
1:15 PM 73.4 °F 67.8 °F 83% 29.84 in 7.0 mi ESE 8.1 mph - 0.01 in Rain , Thunderstorm Thunderstorms and Rain
1:35 PM 72.7 °F 68.0 °F 85% 29.85 in 5.0 mi SE 11.5 mph - 0.05 in Rain Rain
1:55 PM 71.4 °F 67.1 °F 86% 29.84 in 7.0 mi SSE 13.8 mph 25.3 mph 0.08 in Rain Rain
2:15 PM 69.4 °F 66.0 °F 89% 29.82 in 10.0 mi SE 13.8 mph - 0.02 in Rain Light Rain
2:35 PM 69.8 °F 66.6 °F 89% 29.80 in 10.0 mi SE 16.1 mph - 0.02 in Rain Light Rain
2:55 PM 68.5 °F 66.2 °F 92% 29.80 in 2.0 mi SSE 10.4 mph - 0.15 in Rain Heavy Rain
3:15 PM 68.9 °F 66.4 °F 92% 29.78 in 7.0 mi SE 11.5 mph - 0.03 in Rain Light Rain
3:35 PM 68.9 °F 66.7 °F 93% 29.77 in 10.0 mi ESE 8.1 mph - 0.06 in Rain Light Rain
3:55 PM 69.3 °F 67.3 °F 93% 29.76 in 7.0 mi ESE 8.1 mph - 0.09 in Rain Rain
4:15 PM 69.1 °F 67.1 °F 93% 29.76 in 1.2 mi East 12.7 mph - 0.14 in Rain Heavy Rain
4:35 PM 69.3 °F 67.5 °F 94% 29.74 in 1.8 mi South 8.1 mph - 0.44 in Rain Heavy Rain
4:55 PM 69.4 °F 67.6 °F 94% 29.74 in 1.5 mi South 10.4 mph - 0.69 in Rain Heavy Rain
5:15 PM 70.5 °F 68.7 °F 94% 29.73 in 5.0 mi SSE 3.5 mph 17.3 mph 0.02 in Rain Light Rain
5:35 PM 71.6 °F 68.7 °F 91% 29.72 in 10.0 mi Calm Calm - 0.02 in   Scattered Clouds
5:55 PM 72.5 °F 69.3 °F 90% 29.71 in 7.0 mi SSW 3.5 mph - 0.02 in Rain Light Rain
6:15 PM 72.5 °F 69.6 °F 91% 29.70 in 10.0 mi Calm Calm - N/A Rain Light Rain
6:35 PM 71.8 °F 69.6 °F 93% 29.70 in 4.0 mi Calm Calm - 0.06 in Rain Light Rain
6:55 PM 71.6 °F 69.8 °F 94% 29.70 in 7.0 mi Calm Calm - 0.07 in Rain Light Rain
7:15 PM 72.3 °F 70.0 °F 92% 29.69 in 10.0 mi Calm Calm - N/A   Mostly Cloudy
7:35 PM 72.5 °F 69.8 °F 91% 29.69 in 7.0 mi Calm Calm - N/A   Light Drizzle
7:55 PM 71.4 °F 69.4 °F 93% 29.69 in 5.0 mi North 6.9 mph - 0.01 in Rain Heavy Rain
8:15 PM 70.0 °F 68.5 °F 95% 29.70 in 10.0 mi NNW 8.1 mph - 0.02 in Rain Rain
8:35 PM 69.3 °F 68.0 °F 96% 29.70 in 10.0 mi NNW 9.2 mph - 0.02 in   Overcast
8:55 PM 68.7 °F 67.3 °F 95% 29.71 in 7.0 mi NNW 13.8 mph - 0.02 in   Light Drizzle
9:15 PM 68.0 °F 66.7 °F 96% 29.73 in 7.0 mi NW 10.4 mph 19.6 mph N/A   Overcast
9:35 PM 67.5 °F 66.2 °F 96% 29.74 in 10.0 mi NNW 18.4 mph 23.0 mph N/A   Overcast
9:55 PM 67.1 °F 65.3 °F 94% 29.76 in 4.0 mi North 20.7 mph 32.2 mph 0.01 in Rain Light Rain
10:15 PM 66.2 °F 64.4 °F 94% 29.76 in 7.0 mi North 21.9 mph 27.6 mph N/A   Overcast
10:35 PM 65.5 °F 63.5 °F 93% 29.79 in 10.0 mi NNW 19.6 mph 28.8 mph N/A   Overcast
10:55 PM 65.3 °F 62.6 °F 91% 29.80 in 10.0 mi North 23.0 mph 26.5 mph N/A   Overcast
11:15 PM 65.3 °F 62.6 °F 91% 29.81 in 10.0 mi North 18.4 mph 24.2 mph N/A   Overcast
11:35 PM 65.7 °F 62.8 °F 90% 29.81 in 10.0 mi NNW 13.8 mph 19.6 mph N/A   Mostly Cloudy
11:55 PM 65.5 °F 62.6 °F 90% 29.82 in 10.0 mi NW 16.1 mph 21.9 mph N/A   Overcast